Weather History for Imperial, NE

Change the Weather History Date:

Saturday, November 2, 2013

  Actual Average Record
Temperature  
Mean Temperature 44 °F 44 °F  
Max Temperature 62 °F 58 °F 81 °F (1931)
Min Temperature 25 °F 30 °F 0 °F (1951)
Degree Days  
Heating Degree Days 21 21  
Month to date heating degree days 43 42  
Cooling Degree Days 0 0  
Month to date cooling degree days 0 0  
Year to date cooling degree days 1166 963  
Moisture  
Dew Point 23 °F    
Average Humidity 51    
Maximum Humidity 81    
Minimum Humidity 20    
Precipitation  
Precipitation 0.00 in 0.03 in 0.92 in (1956)
Sea Level Pressure  
Sea Level Pressure 30.11 in    
Wind  
Wind Speed 15 mph (South)    
Max Wind Speed 29 mph    
Max Gust Speed 36 mph    
Visibility 10 miles    
Events      
T = Trace of Precipitation, MM = Missing Value Source: NWS Daily Summary

Daily Weather History Graph

Daily Weather History Graph

Search for Another Location

Airport:

Trip Planner

Search our weather history database for the weather conditions in past years. The results will help you decide how hot, cold, wet, or windy it might be!

Date:

Astronomy

Nov. 02, 2013 Rise Set
Actual Time 7:17 AM MDT 5:41 PM MDT
Civil Twilight 6:49 AM MDT 6:09 PM MDT
Nautical Twilight 6:17 AM MDT 6:42 PM MDT
Astronomical Twilight 5:45 AM MDT 7:14 PM MDT
Moon 6:17 AM MDT (11/2) 5:14 PM MDT (11/2)
Length of Visible Light 11h 20m
Length of Day
10h 23m
Waning Crescent, 1% of the Moon is Illuminated
Nov 2
Waning Crescent
Nov 3
New
Nov 9
First Quarter
Nov 17
Full
Nov 25
Last Quarter

Hourly Weather History & Observations

Time (MDT) Temp. Windchill Dew Point Humidity Pressure Visibility Wind Dir Wind Speed Gust Speed Precip Events Conditions
12:53 AM 33.1 °F 26.1 °F 21.0 °F 61% 30.25 in 10.0 mi WNW 8.1 mph - N/A   Clear
1:53 AM 33.1 °F 26.1 °F 21.9 °F 64% 30.26 in 10.0 mi West 8.1 mph - N/A   Partly Cloudy
2:53 AM 30.9 °F 23.5 °F 21.9 °F 69% 30.25 in 10.0 mi West 8.1 mph - N/A   Clear
3:53 AM 28.9 °F 22.8 °F 21.0 °F 72% 30.26 in 10.0 mi WNW 5.8 mph - N/A   Clear
4:53 AM 30.0 °F 21.7 °F 21.0 °F 69% 30.27 in 10.0 mi West 9.2 mph - N/A   Clear
5:53 AM 30.0 °F 23.2 °F 21.0 °F 69% 30.27 in 10.0 mi West 6.9 mph - N/A   Clear
6:53 AM 28.0 °F 22.8 °F 19.9 °F 72% 30.29 in 10.0 mi Variable 4.6 mph - N/A   Clear
7:53 AM 27.0 °F 19.5 °F 21.0 °F 78% 30.29 in 10.0 mi South 6.9 mph - N/A   Clear
8:53 AM 36.0 °F 33.3 °F 24.1 °F 62% 30.29 in 10.0 mi Variable 3.5 mph - N/A   Clear
9:53 AM 45.0 °F 40.1 °F 25.0 °F 46% 30.27 in 10.0 mi South 9.2 mph - N/A   Clear
10:53 AM 53.1 °F - 23.0 °F 31% 30.23 in 10.0 mi South 16.1 mph 20.7 mph N/A   Clear
11:53 AM 57.0 °F - 21.0 °F 25% 30.20 in 10.0 mi South 18.4 mph 25.3 mph N/A   Clear
12:53 PM 59.0 °F - 21.9 °F 24% 30.14 in 10.0 mi South 21.9 mph 28.8 mph N/A   Clear
1:53 PM 61.0 °F - 21.9 °F 22% 30.08 in 10.0 mi South 21.9 mph 28.8 mph N/A   Clear
2:53 PM 62.1 °F - 21.9 °F 21% 30.04 in 10.0 mi South 19.6 mph 29.9 mph N/A   Clear
3:53 PM 61.0 °F - 23.0 °F 23% 30.01 in 10.0 mi SSE 26.5 mph 33.4 mph N/A   Clear
4:53 PM 59.0 °F - 21.9 °F 24% 29.99 in 10.0 mi South 26.5 mph 33.4 mph N/A   Clear
5:53 PM 54.0 °F - 24.1 °F 31% 29.98 in 10.0 mi SSE 20.7 mph - N/A   Clear
6:53 PM 50.0 °F - 24.1 °F 36% 29.98 in 10.0 mi SSE 19.6 mph - N/A   Clear
7:53 PM 48.9 °F - 25.0 °F 39% 29.95 in 10.0 mi SSE 21.9 mph - N/A   Clear
8:53 PM 48.0 °F - 28.0 °F 46% 29.91 in 10.0 mi SSE 24.2 mph 32.2 mph N/A   Clear
9:53 PM 46.9 °F - 28.9 °F 50% 29.87 in 10.0 mi SSE 25.3 mph 32.2 mph N/A   Clear
10:53 PM 39.9 °F 31.8 °F 28.9 °F 65% 29.83 in 10.0 mi SSE 15.0 mph 25.3 mph N/A   Clear
11:53 PM 39.9 °F 33.4 °F 28.0 °F 63% 29.80 in 10.0 mi SE 10.4 mph - N/A   Clear